Temperature
22 22 22 21 21 21 20 20 20 20 20 19 19 19 19 19 19 18 18 18 18 18 18 18 18 17 17 17 17 17 17 16 16 16 16 16 16 16 16 15 15 15 15
22 22 22 22 21 21 21 20 20 20 19 19 19 19 19 19 19 18 18 18 18 18 18 18 18 17 17 17 17 17 17 16 16 16 16 15 15 15 15 15 15 15 15
22 22 21 21 21 21 21 21 20 20 19 19 19 19 19 19 18 18 18 18 18 18 18 18 17 17 17 17 17 17 16 16 16 16 15 15 15 15 15 15 14 14 14
21 21 21 21 21 21 21 20 20 20 19 19 19 18 18 18 18 18 18 18 18 18 18 17 17 17 17 17 17 17 16 16 16 15 15 15 15 14 14 14 14 14 14
21 21 21 21 21 21 20 20 20 19 19 19 19 18 18 18 18 18 18 18 18 18 18 18 17 17 17 17 17 16 16 16 15 15 15 15 14 14 14 14 14 14 14
21 21 20 20 20 20 20 20 20 19 19 19 18 18 18 18 18 18 18 18 18 18 17 17 17 17 17 17 16 16 16 16 15 15 15 14 14 14 14 14 13 13 13
20 20 20 20 20 20 20 19 19 19 19 18 18 18 18 18 18 18 18 17 17 17 17 17 17 17 16 16 16 16 16 15 15 15 14 14 14 14 14 13 13 13 13
20 20 20 20 19 19 19 19 19 18 18 18 18 18 18 17 17 17 17 17 17 17 17 17 16 16 16 16 16 15 15 15 15 14 14 14 14 13 13 13 13 13 13
19 19 19 19 19 19 19 19 18 18 18 18 17 17 17 17 17 17 17 17 16 16 16 16 16 16 16 15 15 15 15 15 14 14 14 14 13 13 13 13 13 13 12
19 19 19 19 18 19 18 18 18 18 17 17 17 17 17 17 17 16 16 16 16 16 16 16 15 15 15 15 15 15 14 14 14 14 14 13 13 13 13 13 12 12 12
18 18 18 18 18 18 17 17 17 17 17 16 16 16 16 16 16 16 16 16 16 15 15 15 15 15 15 15 14 14 14 14 13 13 13 13 13 12 12 12 12 12 12
17 17 17 17 17 17 17 17 17 16 16 16 16 15 16 16 16 16 15 15 15 15 15 15 14 14 14 14 14 13 13 13 13 13 13 12 12 12 12 12 12 11 11
17 17 17 16 16 16 16 16 16 16 16 16 15 15 15 15 15 15 15 15 15 14 14 14 14 14 13 13 13 13 13 12 12 12 12 12 12 12 12 11 11 11 11
16 16 16 16 15 15 15 15 15 15 15 15 15 15 15 15 15 15 15 14 14 14 14 13 13 13 13 12 12 12 12 12 12 12 12 12 11 11 11 11 11 11 11
15 15 15 15 15 15 15 15 15 15 15 14 14 14 14 14 15 14 14 14 14 14 13 13 13 12 12 12 12 12 12 11 11 11 11 11 11 11 11 11 11 10 10
15 15 15 14 14 14 14 14 14 14 14 14 14 14 14 14 14 14 14 13 13 13 13 13 12 12 12 12 12 12 11 11 11 11 11 11 11 11 10 10 10 10 10
14 14 14 14 14 14 14 13 13 14 13 13 13 14 13 13 13 13 13 13 13 12 12 12 12 12 11 11 11 11 11 11 11 11 11 11 10 10 10 10 10 10 10
13 13 13 13 13 13 13 13 13 13 13 13 13 13 13 13 13 13 12 12 12 12 12 11 11 11 11 11 11 11 11 11 11 10 10 10 10 10 10 10 10 10 9
13 13 13 13 12 13 13 12 12 13 12 12 12 12 12 12 12 12 12 12 12 11 11 11 11 11 11 11 11 11 10 10 10 10 10 10 10 10 10 10 9 9 9
12 12 12 12 12 12 12 12 12 12 12 12 12 12 12 12 12 11 11 11 11 11 11 11 11 11 10 10 10 10 10 10 10 10 9 9 9 9 9 9 9 9 9
12 12 12 12 12 12 12 12 12 12 12 12 12 12 11 11 11 11 11 11 11 11 11 11 10 10 10 10 10 10 9 9 9 9 9 9 9 9 9 9 9 8 8
11 11 11 11 11 11 11 11 11 11 11 11 11 11 11 11 11 11 11 11 10 10 10 10 10 10 9 9 9 9 9 9 9 9 9 9 8 8 8 8 8 8 8
11 11 11 11 11 11 11 11 11 11 11 11 11 11 11 11 11 11 10 10 10 10 10 10 9 9 9 9 9 9 9 9 8 8 8 8 8 8 8 8 7 7 7
11 11 11 11 11 11 11 11 11 11 11 10 10 10 10 10 10 10 10 10 9 9 9 9 9 9 9 8 8 8 8 8 8 8 8 8 7 7 7 7 7 7 7
11 11 11 11 10 10 10 10 10 10 10 10 10 10 10 10 10 9 9 9 9 9 9 9 8 8 8 8 8 8 8 8 7 7 7 7 7 7 7 7 6 6 6
11 10 10 10 10 10 10 10 10 10 10 9 9 9 9 9 9 9 9 9 9 9 8 8 8 8 8 8 8 7 7 7 7 7 7 7 7 6 6 6 6 6 6
Wind_Speed
9 8 7 7 7 6 6 6 6 6 6 6 6 6 6 6 5 5 5 5 5 4 3 3 3 2 1 1 1 1 2 3 2 2 1 1 0 0 1 1 1 1 1
10 9 8 7 7 7 7 7 6 6 6 6 6 6 6 6 6 6 6 6 6 5 5 4 3 2 2 1 1 1 1 2 3 2 1 1 1 1 1 1 0 0 0
8 8 8 7 7 8 8 6 5 5 5 4 5 6 6 6 6 6 6 6 6 6 5 5 4 3 2 2 1 1 1 1 2 2 1 1 1 1 0 1 0 0 1
7 8 8 8 8 8 7 6 6 5 5 5 5 5 5 5 6 6 6 6 5 5 5 5 4 4 4 3 2 2 1 1 1 2 1 0 1 1 0 0 0 1 1
7 7 8 8 7 6 6 6 5 5 5 5 5 5 5 5 5 5 5 6 6 5 4 4 4 5 5 4 2 2 2 2 1 1 1 0 1 0 1 1 1 1 1
7 7 7 6 6 6 7 6 5 5 5 5 5 5 6 5 6 8 7 5 6 6 5 4 3 3 3 3 3 4 4 4 3 2 2 2 3 2 2 1 1 1 1
4 5 5 5 5 5 6 5 5 5 5 5 5 5 5 5 7 8 9 6 6 6 5 4 3 3 3 2 2 2 2 2 4 4 4 4 3 4 2 2 2 2 3
4 4 4 4 5 5 5 6 6 5 5 5 5 5 4 4 6 7 8 6 5 5 6 6 5 4 4 4 3 2 1 1 2 3 4 4 3 3 4 4 4 2 1
4 4 5 5 5 5 6 7 6 6 5 5 4 5 5 5 6 7 7 5 5 5 5 5 6 5 5 6 4 3 1 1 0 2 3 2 3 2 3 2 2 2 0
4 5 5 5 5 5 6 6 5 5 5 4 4 5 5 5 6 7 8 5 5 4 4 4 6 6 7 8 5 5 4 3 1 1 0 1 1 1 2 3 3 2 1
3 3 3 3 4 4 4 3 3 3 3 4 5 5 5 6 6 7 8 6 6 5 4 4 4 7 7 8 6 5 6 4 3 3 1 0 1 1 1 1 2 3 3
2 2 3 3 3 2 3 3 3 3 4 5 5 5 5 5 6 6 7 7 6 5 5 4 4 7 7 7 6 5 5 4 2 2 1 1 2 2 2 2 2 2 3
1 2 2 2 3 3 4 4 4 4 5 5 5 6 5 4 4 6 7 7 8 6 5 6 5 7 6 5 6 6 5 3 2 2 3 3 3 3 1 0 1 1 1
1 2 2 2 3 3 3 3 4 4 5 5 5 6 5 4 4 4 5 5 6 5 4 4 5 6 4 4 3 3 3 3 4 4 3 3 1 1 1 1 1 1 0
2 2 2 2 3 3 3 3 4 4 6 6 6 6 6 7 7 8 7 6 6 6 5 3 2 2 3 3 3 3 3 2 3 3 2 2 1 1 1 1 1 1 1
2 3 3 3 3 3 3 3 3 4 4 6 7 7 6 7 8 8 8 8 9 9 6 4 4 5 5 5 4 4 3 4 3 3 3 3 3 2 2 1 1 2 2
4 4 3 3 3 3 4 4 3 3 2 3 5 6 6 6 7 8 7 7 7 8 5 5 5 5 5 5 4 4 4 4 3 3 3 3 3 3 2 2 2 2 2
4 4 4 3 3 3 3 4 3 3 2 3 3 4 5 6 7 6 6 6 4 4 5 6 5 5 5 5 5 4 4 3 3 3 3 3 3 3 3 3 3 3 3
5 4 3 3 3 3 3 2 3 3 3 2 1 2 3 4 4 4 6 4 5 5 5 5 5 5 5 5 5 5 4 4 3 3 3 3 3 3 4 4 3 4 3
5 6 4 3 3 3 2 3 3 3 3 3 3 3 2 3 2 3 4 4 5 5 4 4 4 5 5 4 4 4 4 3 3 3 3 3 3 3 4 4 4 4 4
4 4 4 3 3 3 3 3 4 4 4 4 4 4 7 5 5 5 5 4 5 5 4 4 4 4 4 4 4 4 4 3 3 3 3 3 3 3 3 3 3 3 3
3 3 3 3 3 3 3 3 4 4 4 4 3 4 7 4 4 4 4 4 4 4 4 5 4 4 4 5 5 5 4 4 3 3 3 3 3 3 3 2 2 2 2
3 3 3 3 3 4 4 3 3 4 4 4 4 4 5 4 4 4 4 3 3 4 4 4 4 3 3 4 4 5 5 4 4 4 3 2 2 2 2 2 3 3 2
2 3 3 3 3 3 3 3 3 4 4 4 4 4 5 5 4 4 4 4 3 4 4 4 5 5 6 4 4 4 4 4 4 4 4 3 2 2 2 2 2 3 3
2 3 3 3 3 3 3 3 3 3 3 4 4 4 4 4 4 4 4 4 5 5 5 5 5 6 7 6 5 5 4 4 4 4 3 3 3 3 2 3 2 2 2
2 2 2 2 2 2 3 3 3 3 3 3 3 4 4 4 4 5 5 5 5 5 5 5 6 7 7 6 6 6 5 5 5 4 4 3 3 3 3 2 3 2 2
Wind_Direction
187 188 191 192 194 195 201 212 218 221 217 212 208 202 200 200 197 192 199 189 187 199 201 192 205 198 198 203 183 177 180 167 199 257 252 254 194 246 326 244 227 222 250
187 189 194 195 192 199 207 212 213 219 218 210 203 200 203 202 198 195 203 195 188 190 194 188 202 196 192 201 188 194 197 180 177 227 269 251 230 234 231 222 187 149 199
182 186 195 198 200 206 210 209 207 211 214 208 202 204 205 202 201 202 199 194 191 192 193 194 203 188 199 209 201 203 219 193 167 182 242 262 270 314 336 342 88 42 35
176 187 197 204 209 211 208 204 206 204 202 200 206 207 205 203 202 202 196 191 189 191 191 192 196 190 194 196 201 211 205 167 152 161 193 265 285 295 141 296 327 311 307
180 190 202 207 208 204 202 204 203 203 208 204 201 204 206 204 209 199 194 191 183 185 187 191 195 189 185 186 191 187 171 167 161 168 192 217 263 280 247 236 221 292 296
189 199 202 199 200 201 204 203 202 209 211 198 202 206 211 220 218 201 192 191 184 183 190 194 194 181 176 174 177 174 167 171 180 179 200 207 231 229 226 206 185 143 277
190 199 200 198 203 210 208 204 210 215 210 209 212 208 212 224 217 204 197 186 186 187 186 185 192 183 165 175 185 179 197 187 181 179 195 218 216 218 204 208 203 198 221
178 196 203 198 205 210 208 209 214 215 216 217 216 213 211 224 210 199 195 189 186 186 187 187 181 184 191 181 173 175 215 240 204 187 193 211 215 215 203 202 205 207 285
190 204 212 207 207 209 211 214 212 210 216 214 208 211 212 226 210 198 187 187 190 193 191 188 185 190 196 175 163 176 202 285 239 164 185 202 217 218 178 130 125 124 259
217 220 221 215 215 219 221 221 216 207 209 204 213 215 213 223 212 194 184 189 192 194 191 191 190 192 187 177 177 177 191 220 193 151 54 355 325 306 167 164 170 160 172
228 227 225 224 225 220 224 223 214 213 204 202 210 213 217 223 212 190 178 190 193 190 196 204 207 195 191 183 180 189 202 193 184 182 188 252 321 311 282 208 185 172 174
237 234 237 234 236 235 218 225 207 196 206 212 212 213 217 219 213 197 181 187 184 192 204 206 205 195 193 187 187 193 180 159 151 161 191 233 242 252 256 243 218 203 199
247 251 253 251 243 226 211 215 215 208 212 218 214 217 221 215 211 193 185 190 188 195 208 200 198 195 189 189 189 178 165 162 165 195 225 240 242 240 230 268 333 34 16
253 267 261 246 244 239 228 220 215 216 220 223 218 219 221 217 211 205 202 204 203 197 198 189 179 175 180 189 192 196 191 187 189 210 229 247 254 254 218 191 175 152 74
261 260 263 255 242 243 246 241 232 231 220 217 222 217 213 222 221 201 191 198 201 197 176 162 169 180 191 206 210 211 204 195 206 214 212 225 226 224 238 216 168 148 160
253 262 260 261 260 244 244 273 287 249 233 224 221 218 223 216 201 196 199 197 187 172 159 181 199 201 204 204 204 209 209 209 214 207 202 206 213 216 223 217 182 181 199
243 255 260 254 249 238 226 225 247 298 287 257 235 218 216 213 204 200 195 187 174 160 169 193 202 205 205 199 199 201 212 218 206 197 202 210 211 212 204 209 209 204 216
245 248 246 245 244 241 236 229 217 217 251 285 283 246 222 207 200 196 174 145 155 171 194 201 203 203 201 198 199 204 209 211 201 199 205 215 211 206 207 215 215 212 213
245 245 240 238 235 235 234 227 212 204 209 230 251 269 223 194 183 181 161 170 185 196 202 203 204 201 198 195 196 196 194 195 192 193 204 214 216 210 216 220 217 213 204
251 244 239 229 229 228 224 213 208 203 204 206 209 208 172 146 161 179 186 189 190 198 195 194 198 197 193 193 191 186 185 186 189 200 210 218 221 213 215 219 216 210 212
245 236 237 237 232 227 223 214 207 204 208 211 209 199 182 183 187 192 194 190 192 198 195 188 186 186 185 183 182 177 179 192 202 207 214 222 220 216 217 216 213 208 203
239 231 230 234 239 240 234 219 208 208 210 208 205 196 188 185 187 193 197 195 195 195 189 179 182 190 190 185 182 180 178 184 199 205 209 214 217 216 209 203 204 202 191
228 232 239 246 249 240 234 225 213 209 207 204 194 190 189 193 194 195 198 198 187 185 185 176 173 180 186 178 176 176 176 191 202 198 196 202 201 199 187 186 181 175 184
224 225 233 240 237 222 212 211 213 213 203 197 189 189 193 199 197 194 192 184 179 178 178 176 175 173 168 162 156 160 173 182 179 183 183 187 195 192 180 182 185 178 182
233 235 235 230 222 216 211 211 216 215 209 203 193 191 196 197 192 188 185 179 175 175 177 178 174 170 166 164 162 166 174 167 162 159 166 181 187 189 183 181 183 176 176
239 243 238 220 210 209 209 210 212 208 207 201 191 190 191 190 189 185 180 177 176 176 178 180 175 170 166 166 167 165 163 161 160 160 164 178 181 185 178 176 173 175 172
Height
1509 1511 1513 1513 1515 1517 1518 1518 1519 1520 1521 1521 1522 1522 1523 1523 1524 1524 1524 1524 1524 1525 1525 1525 1524 1524 1524 1524 1523 1523 1523 1522 1521 1521 1521 1521 1520 1519 1519 1518 1517 1516 1515
1506 1507 1509 1510 1511 1512 1513 1515 1516 1517 1517 1518 1519 1519 1520 1520 1520 1520 1521 1521 1521 1521 1522 1522 1521 1521 1521 1521 1520 1520 1520 1519 1519 1518 1518 1518 1517 1517 1516 1515 1515 1514 1513
1503 1505 1506 1507 1508 1508 1509 1511 1512 1513 1514 1514 1514 1515 1516 1516 1517 1517 1517 1518 1518 1518 1519 1519 1519 1518 1518 1518 1517 1517 1517 1516 1516 1516 1515 1515 1515 1514 1514 1513 1512 1511 1511
1499 1501 1502 1503 1504 1505 1506 1507 1508 1509 1509 1509 1511 1511 1512 1513 1513 1514 1514 1514 1515 1515 1515 1515 1516 1515 1515 1515 1515 1514 1514 1514 1513 1513 1513 1512 1512 1512 1511 1511 1509 1509 1509
1496 1498 1498 1500 1501 1502 1503 1504 1504 1505 1505 1506 1507 1507 1508 1508 1509 1509 1510 1511 1511 1511 1512 1512 1512 1512 1511 1512 1512 1511 1511 1511 1510 1510 1510 1510 1509 1509 1508 1508 1508 1507 1507
1493 1494 1495 1496 1498 1498 1499 1500 1500 1501 1501 1502 1503 1503 1504 1504 1504 1505 1506 1506 1507 1507 1508 1508 1508 1508 1508 1508 1509 1509 1509 1508 1508 1507 1507 1507 1506 1506 1506 1505 1505 1505 1504
1490 1491 1492 1492 1493 1494 1495 1495 1496 1496 1497 1498 1498 1499 1499 1500 1501 1501 1502 1502 1503 1503 1504 1504 1504 1504 1505 1505 1505 1505 1505 1505 1505 1505 1505 1504 1504 1503 1503 1503 1503 1502 1502
1486 1487 1488 1488 1489 1489 1490 1490 1491 1492 1492 1493 1494 1494 1495 1495 1496 1497 1498 1499 1499 1499 1500 1500 1501 1501 1501 1501 1501 1501 1501 1501 1502 1502 1502 1501 1501 1501 1500 1500 1500 1500 1500
1482 1482 1483 1483 1484 1484 1485 1485 1485 1486 1487 1488 1489 1490 1491 1491 1492 1493 1494 1494 1494 1495 1495 1496 1497 1497 1498 1498 1498 1498 1498 1498 1499 1499 1499 1498 1498 1498 1498 1497 1497 1497 1496
1478 1479 1479 1478 1479 1479 1479 1480 1481 1481 1482 1483 1484 1485 1486 1487 1487 1488 1489 1490 1490 1490 1491 1491 1492 1493 1493 1494 1494 1494 1494 1495 1495 1496 1496 1495 1495 1495 1495 1495 1495 1494 1494
1474 1475 1475 1475 1475 1474 1475 1476 1476 1477 1477 1478 1479 1479 1480 1481 1482 1482 1482 1484 1485 1485 1485 1486 1488 1489 1490 1490 1491 1491 1491 1492 1492 1493 1492 1492 1492 1492 1492 1493 1493 1493 1492
1471 1471 1471 1470 1470 1470 1470 1471 1471 1472 1472 1472 1473 1473 1474 1475 1476 1477 1477 1478 1480 1481 1481 1482 1483 1485 1486 1486 1487 1488 1489 1489 1489 1489 1489 1489 1489 1489 1490 1490 1491 1491 1491
1467 1466 1466 1466 1465 1466 1466 1466 1466 1466 1466 1466 1467 1467 1468 1469 1470 1471 1472 1473 1474 1476 1477 1478 1479 1481 1482 1483 1484 1484 1485 1485 1485 1486 1486 1486 1487 1487 1488 1488 1488 1488 1488
1462 1462 1462 1461 1461 1461 1461 1461 1461 1460 1461 1461 1461 1462 1463 1464 1464 1465 1466 1467 1469 1470 1472 1473 1475 1477 1478 1479 1480 1481 1481 1482 1482 1483 1483 1484 1485 1485 1485 1485 1485 1485 1485
1458 1457 1457 1457 1457 1456 1456 1456 1455 1455 1456 1456 1456 1457 1457 1457 1458 1460 1461 1462 1464 1465 1467 1469 1470 1471 1472 1474 1475 1476 1477 1478 1479 1479 1480 1481 1482 1482 1482 1482 1482 1482 1482
1454 1453 1453 1453 1452 1452 1451 1451 1450 1451 1451 1451 1452 1452 1452 1453 1454 1455 1456 1458 1460 1462 1463 1464 1465 1466 1467 1468 1470 1471 1473 1474 1475 1476 1476 1477 1478 1478 1479 1479 1479 1479 1478
1449 1448 1448 1448 1447 1447 1447 1446 1445 1446 1446 1446 1447 1447 1448 1448 1449 1450 1452 1454 1456 1457 1458 1458 1459 1461 1462 1464 1465 1467 1468 1469 1471 1472 1472 1473 1474 1475 1475 1475 1475 1475 1475
1445 1444 1444 1443 1443 1442 1442 1442 1441 1441 1441 1441 1442 1442 1443 1444 1445 1446 1448 1450 1451 1452 1453 1454 1455 1456 1458 1460 1461 1462 1464 1465 1466 1467 1468 1469 1470 1470 1471 1471 1471 1471 1472
1440 1439 1439 1438 1438 1438 1438 1437 1437 1437 1438 1437 1437 1438 1439 1440 1441 1443 1444 1444 1446 1447 1448 1449 1451 1452 1454 1455 1457 1458 1459 1460 1461 1463 1464 1465 1466 1466 1466 1467 1467 1468 1468
1435 1434 1434 1433 1433 1433 1433 1433 1433 1434 1434 1433 1434 1434 1435 1436 1437 1438 1439 1440 1442 1443 1444 1445 1447 1448 1450 1451 1452 1453 1455 1456 1457 1458 1459 1460 1461 1461 1461 1462 1463 1463 1463
1428 1429 1429 1429 1428 1428 1428 1429 1429 1429 1429 1429 1430 1431 1432 1433 1433 1434 1436 1436 1437 1439 1440 1441 1442 1444 1446 1447 1448 1449 1450 1451 1452 1453 1454 1455 1456 1456 1457 1457 1458 1458 1458
1424 1424 1424 1424 1424 1424 1424 1424 1425 1425 1425 1426 1426 1427 1428 1429 1430 1431 1431 1432 1434 1435 1437 1438 1439 1441 1442 1443 1444 1445 1445 1446 1447 1448 1449 1450 1451 1451 1452 1452 1453 1454 1454
1419 1419 1419 1419 1419 1420 1420 1420 1420 1421 1421 1421 1422 1423 1424 1425 1426 1427 1429 1430 1431 1432 1433 1435 1436 1437 1438 1439 1440 1441 1442 1442 1443 1444 1444 1445 1446 1447 1447 1448 1448 1449 1450
1415 1415 1415 1415 1415 1416 1416 1416 1416 1417 1417 1418 1418 1419 1420 1422 1422 1423 1425 1426 1428 1429 1430 1432 1433 1434 1435 1436 1437 1438 1439 1439 1439 1440 1441 1442 1442 1443 1443 1444 1444 1445 1446
1412 1412 1412 1412 1412 1412 1412 1412 1412 1412 1413 1413 1414 1415 1416 1417 1419 1420 1421 1423 1425 1426 1427 1429 1430 1431 1432 1433 1433 1434 1435 1435 1436 1437 1437 1438 1439 1439 1440 1440 1441 1441 1442
1410 1409 1409 1409 1409 1409 1409 1408 1409 1409 1410 1410 1411 1412 1413 1414 1415 1416 1417 1419 1421 1422 1424 1425 1426 1427 1429 1430 1430 1431 1431 1432 1432 1433 1434 1434 1435 1435 1436 1436 1437 1437 1438